Regional Weather Roundup
Issued by NWS Charleston, SC

Current Version | Previous Version | Text Only | Print | Product List | Glossary Off
Versions: 1 2 3 4 5 6 7 8 9 10 11 12 13 14 15 16 17 18 19 20 21 22 23 24 25 26 27 28 29 30 31 32 33 34 35 36 37 38 39 40 41 42 43 44 45 46 47 48 49 50

000
ASUS42 KCHS 231127
RWRCHS

REGIONAL WEATHER ROUNDUP
NATIONAL WEATHER SERVICE CHARLESTON SC
700 AM EDT SUN JUL 23 2017

NOTE: "FAIR" INDICATES FEW OR NO CLOUDS BELOW 12,000 FEET WITH NO
SIGNIFICANT WEATHER AND/OR OBSTRUCTIONS TO VISIBILITY.

NOT ALL STATIONS ARE QUALITY CONTROLLED. USE DATA WITH CAUTION...
ESPECIALLY DEWPOINT OBSERVATIONS.

SCZ027-030-031-034>040-042>050-231200-
...SOUTHEAST SOUTH CAROLINA...

CITY           SKY/WX    TMP DP  RH WIND       PRES   REMARKS
N CHARLESTON   PTCLDY    77  74  90 SW6       29.95R
WATERFRONT PRK   N/A     79  76  91 SW5       29.93R
JOHNS ISLAND   FAIR      79  77  94 SW7       29.97R
PINOPOLIS        N/A     79  75  89 SW8       29.87R
MONCKS CORNER  FAIR      75  73  94 SW8       29.95R
SUMMERVILLE    FAIR      75  73  94 S3        29.97R
BEAUFORT MCAS  PTCLDY    78  77  96 SW6       29.97R
BEAUFORT ARPT  FAIR      77  73  88 SW5       29.96S
HILTON HEAD IS PTCLDY    77  75  94 SW12      29.98R
WALTERBORO     SUNNY     75  73  94 SW5       29.97R
ALLENDALE      NOT AVBL

...SOUTHERN MIDLANDS AND PEE DEE...

CITY           SKY/WX    TMP DP  RH WIND       PRES   REMARKS
GEORGETOWN     FAIR      77  75  94 SW5       29.96R
KINGSTREE      FAIR      75  73  94 S3        29.94R
ORANGEBURG     CLEAR     75  73  93 SW5       29.95R
BARNWELL       FAIR      79  77  94 CALM      29.96R
AIKEN          FAIR      73  72  94 S9        29.99R
MANNING        FAIR      77  75  94 W6        29.95R
COLUMBIA       PTCLDY    78  73  84 CALM      29.92R
SUMTER         CLEAR     76  73  90 S8        29.91R
FLORENCE       CLEAR     76  75  97 SW7       29.93R
MYRTLE BEACH   PTCLDY    79  75  89 SW6       29.94
N MYRTLE BEACH CLEAR     79  75  87 SW9       29.93S

$$

GAZ063-065-086>088-099>101-113>116-118-119-134>141-150-231200-
...SOUTHEAST GEORGIA...

CITY           SKY/WX    TMP DP  RH WIND       PRES   REMARKS
SAVANNAH ARPT  CLOUDY    77  74  90 SW8       29.99R
HUNTER AAF     CLOUDY    77  75  93 SW6       29.97R
FORT STEWART   CLOUDY    77  74  90 SW8       29.98R
STATESBORO     CLEAR     77  77 100 SW5       29.98R
SYLVANIA       SUNNY     76  76  99 W3        29.99R
CLAXTON        FAIR      77  76  97 CALM      30.00R

...CSRA...CENTRAL AND FAR SOUTHEAST GEORGIA...

CITY           SKY/WX    TMP DP  RH WIND       PRES   REMARKS
THOMSON        CLEAR     75  73  92 W5        30.01R
AUGUSTA-BUSH   CLEAR     79  74  84 SW6       29.94R
AUGUSTA-DANIEL CLEAR     78  72  81 SW6       29.96R
SWAINSBORO     FAIR      75  75 100 CALM      30.00R
VIDALIA        MOCLDY    77  75  94 SW6       30.01R
EASTMAN        PTSUNNY   77  77 100 CALM      30.02R
HAZLEHURST     PTSUNNY   78  78 100 SW3       30.00R
ALMA           CLOUDY    78  75  90 SW5       30.00R
WAYCROSS       CLOUDY    80  80 100 SW3       30.02R
JESUP          NOT AVBL
BAXLEY         CLOUDY    79  79 100 SW3       30.01R
BRUNSWICK      CLOUDY    77  77 100 SW8       30.02R
SAINT SIMONS   CLOUDY    78  76  93 SW8       30.01R

$$

SCZ027-028-034-036>038-045-046-048>050-GAZ119-141-231200-
...LAKE AND SUPPLEMENTAL COASTAL OBSERVATIONS...

STATION/POSITION TIME  TEMP    WIND        PRES    WAVE   SWELL
                       AIR SEA DIR/SP/G            HT/PER HT/PER/DIR
                 (UTC) (F)     (DEG/KT/KT) (MB)    (FT/S) (FT/S/D)
WINYAH BAY       1045   79     250/  5     1014.0S
LAKE MURRAY      1020   81     250/  7/ 10 1011.9R
ACE BASIN NERRS  1045   78     230/  1     1015.0R
FORT PULASKI     1100   78 86  250/  7/ 10 1015.9
SAPELO ISLAND    1100   78     230/ 10     1016.0

$$

ANZ835-935-AMZ111-154-330-350-352-354-370-450-454-472-231200-
...C-MAN AND BUOY OBSERVATIONS...

STATION/POSITION TIME  TEMP    WIND        PRES    WAVE   SWELL
                       AIR SEA DIR/SP/G            HT/PER HT/PER/DIR
                 (UTC) (F)     (DEG/KT/KT) (MB)    (FT/S) (FT/S/D)
BUOY 41004       1110   82 83  230/ 16/ 19 1014.5
BUOY 41008       1050   80 80  230/ 14/ 17 1015.4R   3/ 9   2/100/ 9
FOLLY BEACH CMAN 1100   80     230/  8/ 10 1015.2R
CAPERS NEARSHORE 1108   80 84  250/ 14/ 17 1014.1R
FRIPP NEARSHORE  1108   81 84  240/ 14/ 19 1014.5R


STATION/POSITION TIME  TEMP    WIND        PRES    WAVE   SWELL
                       AIR SEA DIR/SP/G            HT/PER HT/PER/DIR
                 (UTC) (F)     (DEG/KT/KT) (MB)    (FT/S) (FT/S/D)
5E ST. MARYS GA  1100      81                N/A     2/ 9
FRYING PAN BUOY  1110   82 84  220/ 17/ 23 1014.0
BUOY 41025       1050   83 85  240/ 25/ 27 1011.8S   5/ 7   3/250/ 7
CAPE LOOKOUT NC  1100   81     220/ 11/ 16 1012.7S
BUOY 41002       1050   83 83  230/ 17/ 19 1016.5R   5/ 5   2/110/10
BUOY 41010       1110   84 85  200/ 12/ 16 1017.0
ST AUGUSTINE FL  1100   75 77  210/  3/  4 1016.9R


$$




USA.gov is the U.S. government's official web portal to all federal, state and local government web resources and services.